United States

Ashburn, VA Weather Archive

Below you will find the last 24 hours of weather readings for Ashburn VA

Ashburn VA Today's Weather Data

Observed at: Ashburn, VA

Hour Observerd Temp Pressure Visibility Humidity Dew Point Wind
06:00 Fair 50°F (10°C) 101.59 kPa 10 miles 82% 44.6°F (7°C) 8 mph NE 38.75°19 mph
05:00 Fair 50°F (10°C) 101.59 kPa 10 miles 88% 46.4°F (8°C) 10 mph N 5°21 mph
04:00 Fair 50°F (10°C) 101.59 kPa 10 miles 88% 46.4°F (8°C) 10 mph N 5°21 mph
03:00 Fair 52°F (11.1°C) 101.59 kPa 10 miles 82% 46.4°F (8°C) 8 mph N 5°
02:00 Fair 52°F (11.1°C) 101.59 kPa 10 miles 82% 46.4°F (8°C) 6 mph N 5°
01:00 Fair 54°F (12.2°C) 101.59 kPa 10 miles 82% 48.2°F (9°C) 6 mph N 5°
00:00 Fair 54°F (12.2°C) 101.59 kPa 10 miles 82% 48.2°F (9°C) 6 mph N 5°
23:00 Fair 54°F (12.2°C) 101.59 kPa 10 miles 82% 48.2°F (9°C) 8 mph N 5°
22:00 Fair 55°F (12.8°C) 101.59 kPa 10 miles 77% 48.2°F (9°C) 5 mph N 5°
21:00 Fair 57°F (13.9°C) 101.59 kPa 10 miles 77% 50°F (10°C) 8 mph NE 38.75°
20:00 Fair 61°F (16.1°C) 101.59 kPa 10 miles 68% 50°F (10°C) 5 mph N 5°
19:00 Fair 61°F (16.1°C) 101.59 kPa 10 miles 68% 50°F (10°C) 5 mph N 5°
18:00 Fair 64°F (17.8°C) 101.59 kPa 10 miles 56% 48.2°F (9°C) 6 mph NE 38.75°
17:00 Partly Cloudy 66°F (18.9°C) 101.59 kPa 10 miles 52% 48.2°F (9°C) 11 mph NE 38.75°18 mph
16:00 Partly Cloudy 66°F (18.9°C) 101.59 kPa 10 miles 52% 48.2°F (9°C) 11 mph NE 38.75°18 mph
15:00 Partly Cloudy 66°F (18.9°C) 101.59 kPa 10 miles 52% 48.2°F (9°C) 13 mph NE 38.75°23 mph
14:00 Partly Cloudy 66°F (18.9°C) 101.59 kPa 10 miles 52% 48.2°F (9°C) 13 mph NE 38.75°23 mph
13:00 Partly Cloudy 64°F (17.8°C) 101.59 kPa 10 miles 60% 50°F (10°C) 11 mph NE 38.75°17 mph
12:00 Partly Cloudy 63°F (17.2°C) 101.59 kPa 10 miles 60% 48.2°F (9°C) 11 mph NE 38.75°23 mph
11:00 Fair 61°F (16.1°C) 101.59 kPa 10 miles 63% 48.2°F (9°C) 15 mph NE 38.75°24 mph
10:00 Fair 59°F (15°C) 101.59 kPa 10 miles 72% 50°F (10°C) 10 mph NE 38.75°16 mph
09:00 Fair 57°F (13.9°C) 101.59 kPa 10 miles 77% 50°F (10°C) 13 mph N 5°23 mph
08:00 Fair 54°F (12.2°C) 101.59 kPa 10 miles 88% 50°F (10°C) 9 mph N 5°
07:00 Fair 52°F (11.1°C) 101.59 kPa 10 miles 94% 50°F (10°C) 4 mph N 5°


Home | Earthquakes | About Us | Contact Us | Privacy

Copyright Friendly Forecast 2012 - 2022